• In Uzbekistan
  • List of Countries
  • For 7 days
  • Water Temperature
  • Satellite Maps
  • Weather Map
  • Weather Widgets
  • user-avatar
    Login

    Hourly Weather Garissa

    Today, 22 January, Monday

    Time Temperature Precipitation Wind Pressure Humidity
    00:00 +29°C° 0 mm 6 mps 744 mmHg 60%
    01:00 +28°C° 0 mm 5 mps 744 mmHg 62%
    02:00 +27°C° 0 mm 4 mps 744 mmHg 65%
    03:00 +27°C° 0 mm 3 mps 744 mmHg 68%
    04:00 +26°C° 0 mm 3 mps 745 mmHg 71%
    05:00 +26°C° 0 mm 2 mps 745 mmHg 73%
    06:00 +25°C° 0 mm 1 mps 745 mmHg 76%
    07:00 +26°C° 0 mm 1 mps 745 mmHg 72%
    08:00 +27°C° 0 mm 2 mps 746 mmHg 68%
    09:00 +28°C° 0 mm 2 mps 746 mmHg 64%
    10:00 +30°C° 0 mm 2 mps 746 mmHg 56%
    11:00 +33°C° 0 mm 3 mps 745 mmHg 48%
    12:00 +35°C° 0 mm 3 mps 745 mmHg 40%
    13:00 +36°C° 0 mm 4 mps 744 mmHg 35%
    14:00 +39°C° 0 mm 5 mps 743 mmHg 30%
    15:00 +40°C° 0 mm 6 mps 742 mmHg 24%
    16:00 +40°C° 0 mm 5 mps 742 mmHg 24%
    17:00 +39°C° 0 mm 5 mps 742 mmHg 24%
    18:00 +39°C° 0 mm 5 mps 741 mmHg 23%
    19:00 +37°C° 0 mm 4 mps 742 mmHg 24%
    20:00 +35°C° 0 mm 3 mps 742 mmHg 25%
    21:00 +34°C° 0 mm 3 mps 743 mmHg 26%
    22:00 +32°C° 0 mm 4 mps 743 mmHg 37%
    23:00 +30°C° 0 mm 5 mps 743 mmHg 47%

    Tomorrow, 23 January, Tuesday

    Time Temperature Precipitation Wind Pressure Humidity
    00:00 +28°C° 0 mm 6 mps 744 mmHg 57%
    01:00 +28°C° 0 mm 5 mps 744 mmHg 61%
    02:00 +27°C° 0 mm 4 mps 744 mmHg 65%
    03:00 +26°C° 0 mm 3 mps 744 mmHg 69%
    04:00 +26°C° 0 mm 3 mps 744 mmHg 72%
    05:00 +25°C° 0 mm 2 mps 744 mmHg 75%
    06:00 +25°C° 0 mm 1 mps 744 mmHg 78%
    07:00 +26°C° 0 mm 1 mps 745 mmHg 74%
    08:00 +27°C° 0 mm 1 mps 745 mmHg 70%
    09:00 +27°C° 0 mm 2 mps 746 mmHg 67%
    10:00 +29°C° 0 mm 2 mps 745 mmHg 58%
    11:00 +31°C° 0 mm 2 mps 745 mmHg 49%
    12:00 +34°C° 0 mm 3 mps 745 mmHg 41%
    13:00 +36°C° 0 mm 3 mps 744 mmHg 36%
    14:00 +37°C° 0 mm 4 mps 743 mmHg 31%
    15:00 +38°C° 0 mm 4 mps 742 mmHg 26%
    16:00 +38°C° 0 mm 4 mps 741 mmHg 25%
    17:00 +38°C° 0 mm 4 mps 741 mmHg 24%
    18:00 +38°C° 0 mm 4 mps 741 mmHg 23%
    19:00 +37°C° 0 mm 4 mps 742 mmHg 25%
    20:00 +35°C° 0 mm 3 mps 742 mmHg 27%
    21:00 +34°C° 0 mm 3 mps 743 mmHg 28%
    22:00 +32°C° 0 mm 4 mps 743 mmHg 39%
    23:00 +30°C° 0 mm 5 mps 743 mmHg 50%

    Day after tomorrow, 24 January, Wednesday

    Time Temperature Precipitation Wind Pressure Humidity
    00:00 +28°C° 0 mm 6 mps 744 mmHg 61%
    01:00 +27°C° 0 mm 5 mps 744 mmHg 65%
    02:00 +27°C° 0 mm 5 mps 743 mmHg 68%
    03:00 +26°C° 0 mm 4 mps 743 mmHg 72%
    04:00 +26°C° 0 mm 4 mps 744 mmHg 74%
    05:00 +26°C° 0 mm 3 mps 744 mmHg 76%
    06:00 +25°C° 0 mm 3 mps 745 mmHg 77%
    07:00 +26°C° 0 mm 3 mps 745 mmHg 76%
    08:00 +26°C° 0 mm 3 mps 746 mmHg 74%
    09:00 +27°C° 0 mm 3 mps 746 mmHg 72%
    10:00 +28°C° 0 mm 3 mps 746 mmHg 67%
    11:00 +29°C° 0 mm 2 mps 746 mmHg 61%
    12:00 +30°C° 0 mm 2 mps 745 mmHg 56%
    13:00 +31°C° 0 mm 2 mps 744 mmHg 50%
    14:00 +34°C° 0 mm 2 mps 743 mmHg 45%
    15:00 +35°C° 0 mm 3 mps 742 mmHg 39%
    16:00 +35°C° 0 mm 3 mps 742 mmHg 38%
    17:00 +36°C° 0 mm 3 mps 742 mmHg 37%
    18:00 +36°C° 0 mm 3 mps 742 mmHg 36%
    19:00 +35°C° 0 mm 3 mps 742 mmHg 39%
    20:00 +34°C° 0 mm 3 mps 743 mmHg 42%
    21:00 +33°C° 0 mm 3 mps 744 mmHg 44%
    22:00 +32°C° 0 mm 4 mps 744 mmHg 51%
    23:00 +30°C° 0 mm 5 mps 744 mmHg 57%

    25 January, Thursday

    Time Temperature Precipitation Wind Pressure Humidity
    00:00 +29°C° 0 mm 6 mps 744 mmHg 63%
    01:00 +28°C° 0 mm 5 mps 744 mmHg 67%
    02:00 +27°C° 0 mm 5 mps 743 mmHg 72%
    03:00 +26°C° 0 mm 5 mps 743 mmHg 76%
    04:00 +26°C° 0 mm 4 mps 744 mmHg 78%
    05:00 +25°C° 0 mm 4 mps 744 mmHg 80%
    06:00 +25°C° 0 mm 4 mps 744 mmHg 82%
    07:00 +26°C° 0 mm 3 mps 745 mmHg 79%
    08:00 +26°C° 0 mm 3 mps 745 mmHg 75%
    09:00 +27°C° 0 mm 3 mps 746 mmHg 72%
    10:00 +29°C° 0 mm 3 mps 745 mmHg 64%
    11:00 +31°C° 0 mm 2 mps 745 mmHg 56%
    12:00 +32°C° 0 mm 2 mps 744 mmHg 49%
    13:00 +35°C° 0 mm 2 mps 743 mmHg 43%
    14:00 +36°C° 0 mm 3 mps 742 mmHg 38%
    15:00 +37°C° 0 mm 3 mps 741 mmHg 33%
    16:00 +37°C° 0 mm 3 mps 741 mmHg 31%
    17:00 +37°C° 0 mm 4 mps 741 mmHg 30%
    18:00 +37°C° 0 mm 4 mps 741 mmHg 28%
    19:00 +36°C° 0 mm 4 mps 742 mmHg 31%
    20:00 +35°C° 0 mm 4 mps 742 mmHg 33%
    21:00 +34°C° 0 mm 5 mps 743 mmHg 35%
    22:00 +33°C° 0 mm 4 mps 743 mmHg 39%
    23:00 +31°C° 0 mm 3 mps 743 mmHg 43%

    26 January, Friday

    Time Temperature Precipitation Wind Pressure Humidity
    00:00 +30°C° 0 mm 3 mps 743 mmHg 47%
    01:00 +29°C° 0 mm 3 mps 743 mmHg 54%
    02:00 +28°C° 0 mm 4 mps 743 mmHg 62%
    03:00 +27°C° 0 mm 4 mps 742 mmHg 69%
    04:00 +26°C° 0 mm 4 mps 743 mmHg 72%
    05:00 +26°C° 0 mm 3 mps 744 mmHg 76%
    06:00 +25°C° 0 mm 3 mps 744 mmHg 79%
    07:00 +26°C° 0 mm 3 mps 745 mmHg 75%
    08:00 +27°C° 0 mm 2 mps 745 mmHg 71%
    09:00 +28°C° 0 mm 2 mps 746 mmHg 67%
    10:00 +30°C° 0 mm 2 mps 745 mmHg 59%
    11:00 +32°C° 0 mm 2 mps 745 mmHg 50%
    12:00 +34°C° 0 mm 2 mps 744 mmHg 42%
    13:00 +36°C° 0 mm 2 mps 743 mmHg 36%
    14:00 +37°C° 0 mm 3 mps 742 mmHg 31%
    15:00 +39°C° 0 mm 3 mps 741 mmHg 25%
    16:00 +40°C° 0 mm 4 mps 741 mmHg 24%
    17:00 +40°C° 0 mm 4 mps 741 mmHg 23%
    18:00 +38°C° 0 mm 4 mps 741 mmHg 22%
    19:00 +37°C° 0 mm 4 mps 741 mmHg 24%
    20:00 +36°C° 0 mm 3 mps 742 mmHg 25%
    21:00 +35°C° 0 mm 3 mps 742 mmHg 27%
    22:00 +33°C° 0 mm 3 mps 742 mmHg 34%
    23:00 +32°C° 0 mm 4 mps 743 mmHg 42%

    27 January, Saturday

    Time Temperature Precipitation Wind Pressure Humidity
    00:00 +30°C° 0 mm 4 mps 743 mmHg 49%
    01:00 +29°C° 0 mm 4 mps 742 mmHg 58%
    02:00 +28°C° 0 mm 4 mps 742 mmHg 67%
    03:00 +26°C° 0 mm 4 mps 742 mmHg 75%
    04:00 +26°C° 0 mm 4 mps 742 mmHg 77%
    05:00 +26°C° 0 mm 3 mps 743 mmHg 78%
    06:00 +25°C° 0 mm 3 mps 744 mmHg 80%
    07:00 +26°C° 0 mm 3 mps 744 mmHg 76%
    08:00 +27°C° 0 mm 3 mps 745 mmHg 73%
    09:00 +27°C° 0 mm 2 mps 745 mmHg 70%
    10:00 +29°C° 0 mm 2 mps 745 mmHg 62%
    11:00 +31°C° 0 mm 2 mps 744 mmHg 55%
    12:00 +34°C° 0 mm 2 mps 744 mmHg 47%
    13:00 +35°C° 0 mm 3 mps 743 mmHg 42%
    14:00 +36°C° 0 mm 3 mps 742 mmHg 36%
    15:00 +38°C° 0 mm 3 mps 741 mmHg 31%
    16:00 +38°C° 0 mm 3 mps 741 mmHg 30%
    17:00 +38°C° 0 mm 3 mps 741 mmHg 28%
    18:00 +38°C° 0 mm 3 mps 741 mmHg 27%
    19:00 +37°C° 0 mm 3 mps 741 mmHg 29%
    20:00 +35°C° 0 mm 3 mps 742 mmHg 31%
    21:00 +34°C° 0 mm 2 mps 742 mmHg 33%
    22:00 +32°C° 0 mm 4 mps 742 mmHg 45%
    23:00 +30°C° 0 mm 5 mps 742 mmHg 56%
    Show more